Location: Iwkowa
(49.8210°N, 20.5761°E)
Time: 11:43:39
(UTC+01:00)

ISS - Pass Details

Date: 28 January 2019
Orbit: 403 x 411 km, 51.6° (Epoch: 22 February)

Event Time Altitude Azimuth Distance (km) Brightness Sun altitude
Rises 19:07:10 0° 272° (W) 2,337 1.4 -26.0°
Reaches altitude 10° 19:09:17 10° 275° (W) 1,478 0.0 -26.4°
Enters shadow 19:10:48 24° 283° (WNW) 889 -1.5 -26.6°
